,,PA_Meas_PMT16A,,PR_Meas_QMR101_102,,RH_Meas_QMH101,,SR_Meas_QMS101,,TA_Meas_QMH101,,GenWind,,GenWind,
time,status,PA,status,PR,status,RH,status,SR,status,TA,status,DirAvg,status,SpdAvg,
2014-12-14, 00:00:04,VALID,918.828,VALID,0,VALID,93.829,VALID,0,VALID,20.0538,VALID,149,VALID,0.885938,
2014-12-14, 00:01:04,VALID,918.8,VALID,0,VALID,93.6079,VALID,0,VALID,20.0733,VALID,129,VALID,1.02344,
2014-12-14, 00:02:04,VALID,918.809,VALID,0,VALID,93.6765,VALID,0,VALID,20.0733,VALID,144,VALID,0.928516,
2014-12-14, 00:03:04,VALID,918.765,VALID,0,VALID,93.8214,VALID,0,VALID,20.0538,VALID,157,VALID,1.26758,
2014-12-14, 00:04:04,VALID,918.77,VALID,0,VALID,94.0043,VALID,0,VALID,20.0358,VALID,147,VALID,0.807422,
2014-12-14, 00:05:04,VALID,918.78,VALID,0,VALID,94.2026,VALID,0,VALID,20.0148,VALID,154,VALID,1.10312,
2014-12-14, 00:06:04,VALID,918.716,VALID,0,VALID,94.3779,VALID,0,VALID,20.0358,VALID,164,VALID,1.46328,
2014-12-14, 00:07:04,VALID,918.708,VALID,0,VALID,94.4389,VALID,0,VALID,20.0148,VALID,153,VALID,1.13828,
2014-12-14, 00:08:04,VALID,918.692,VALID,0,VALID,94.294,VALID,0,VALID,20.0148,VALID,152,VALID,1.24961,
2014-12-14, 00:09:04,VALID,918.677,VALID,0,VALID,94.1721,VALID,0,VALID,20.0343,VALID,152,VALID,1.00937,
2014-12-14, 00:10:04,VALID,918.651,VALID,0,VALID,94.1416,VALID,0,VALID,20.0343,VALID,149,VALID,0.893359,
2014-12-14, 00:11:04,VALID,918.675,VALID,0,VALID,94.1644,VALID,0,VALID,20.0148,VALID,167,VALID,0.8375,
2014-12-14, 00:12:04,VALID,918.637,VALID,0,VALID,94.294,VALID,0,VALID,19.9953,VALID,189,VALID,0.650781,
2014-12-14, 00:13:04,VALID,918.638,VALID,0,VALID,94.2712,VALID,0,VALID,20.0163,VALID,153,VALID,1.1957,
2014-12-14, 00:14:04,VALID,918.622,VALID,0,VALID,94.2254,VALID,0,VALID,20.0148,VALID,146,VALID,1.2832,
2014-12-14, 00:15:04,VALID,918.607,VALID,0,VALID,94.1492,VALID,0,VALID,20.0148,VALID,165,VALID,1.37773,
2014-12-14, 00:16:04,VALID,918.595,VALID,0,VALID,94.1797,VALID,0,VALID,20.0163,VALID,159,VALID,1.01055,
2014-12-14, 00:17:04,VALID,918.589,VALID,0,VALID,93.9357,VALID,0,VALID,19.9953,VALID,165,VALID,1.82148,
2014-12-14, 00:18:04,VALID,918.582,VALID,0,VALID,93.7451,VALID,0,VALID,20.0343,VALID,156,VALID,1.38242,
2014-12-14, 00:19:04,VALID,918.537,VALID,0,VALID,93.6613,VALID,0,VALID,20.0343,VALID,168,VALID,1.40742,
2014-12-14, 00:20:04,VALID,918.533,VALID,0,VALID,93.6765,VALID,0,VALID,20.0148,VALID,149,VALID,0.932422,
2014-12-14, 00:21:04,VALID,918.495,VALID,0,VALID,93.6308,VALID,0,VALID,20.0343,VALID,162,VALID,1.55039,
2014-12-14, 00:22:04,VALID,918.478,VALID,0,VALID,93.6842,VALID,0,VALID,20.0343,VALID,148,VALID,0.784766,
2014-12-14, 00:23:04,VALID,918.473,VALID,0,VALID,93.6537,VALID,0,VALID,20.0148,VALID,163,VALID,0.994141,
2014-12-14, 00:24:04,VALID,918.429,VALID,0,VALID,93.6384,VALID,0,VALID,19.9953,VALID,143,VALID,1.15039,
2014-12-14, 00:25:04,VALID,918.41,VALID,0,VALID,93.6232,VALID,0,VALID,19.9953,VALID,156,VALID,0.959375,
2014-12-14, 00:26:04,VALID,918.419,VALID,0,VALID,93.646,VALID,0,VALID,20.0148,VALID,139,VALID,0.711719,
2014-12-14, 00:27:04,VALID,918.421,VALID,0,VALID,93.5469,VALID,0,VALID,19.9953,VALID,147,VALID,1.22383,
2014-12-14, 00:28:04,VALID,918.415,VALID,0,VALID,93.5241,VALID,0,VALID,19.9758,VALID,145,VALID,0.817969,
2014-12-14, 00:29:04,VALID,918.404,VALID,0,VALID,93.4173,VALID,0,VALID,19.9758,VALID,133,VALID,1.39766,
2014-12-14, 00:30:04,VALID,918.397,VALID,0,VALID,93.2496,VALID,0,VALID,19.9953,VALID,131,VALID,1.13828,
2014-12-14, 00:31:04,VALID,918.414,VALID,0,VALID,93.0057,VALID,0,VALID,19.9968,VALID,143,VALID,0.807031,
2014-12-14, 00:32:04,VALID,918.421,VALID,0,VALID,92.6931,VALID,0,VALID,20.0358,VALID,131,VALID,0.912109,
2014-12-14, 00:33:04,VALID,918.418,VALID,0,VALID,92.5254,VALID,0,VALID,20.0148,VALID,122,VALID,1.20156,
2014-12-14, 00:34:04,VALID,918.435,VALID,0,VALID,92.4949,VALID,0,VALID,19.9953,VALID,114,VALID,1.43555,
2014-12-14, 00:35:04,VALID,918.442,VALID,0,VALID,92.6245,VALID,0,VALID,19.9758,VALID,112,VALID,1.04062,
2014-12-14, 00:36:04,VALID,918.44,VALID,0,VALID,92.7998,VALID,0,VALID,19.9578,VALID,123,VALID,1.20078,
2014-12-14, 00:37:04,VALID,918.419,VALID,0,VALID,92.9981,VALID,0,VALID,19.8978,VALID,124,VALID,1.2207,
2014-12-14, 00:38:04,VALID,918.427,VALID,0,VALID,93.3411,VALID,0,VALID,19.8783,VALID,110,VALID,1.24297,
2014-12-14, 00:39:04,VALID,918.442,VALID,0,VALID,93.7604,VALID,0,VALID,19.8588,VALID,125,VALID,1.08398,
2014-12-14, 00:40:04,VALID,918.424,VALID,0,VALID,93.7909,VALID,0,VALID,19.8588,VALID,125,VALID,1.3668,
2014-12-14, 00:41:04,VALID,918.449,VALID,0,VALID,93.8214,VALID,0,VALID,19.8588,VALID,122,VALID,0.988672,
2014-12-14, 00:42:04,VALID,918.43,VALID,0,VALID,93.9662,VALID,0,VALID,19.8588,VALID,136,VALID,1.44062,
2014-12-14, 00:43:04,VALID,918.433,VALID,0,VALID,94.0806,VALID,0,VALID,19.8393,VALID,143,VALID,1.75156,
2014-12-14, 00:44:04,VALID,918.45,VALID,0,VALID,94.0653,VALID,0,VALID,19.8603,VALID,145,VALID,1.37695,
2014-12-14, 00:45:04,VALID,918.437,VALID,0,VALID,94.0425,VALID,0,VALID,19.8603,VALID,146,VALID,1.29609,
2014-12-14, 00:46:04,VALID,918.437,VALID,0,VALID,94.0577,VALID,0,VALID,19.8603,VALID,133,VALID,1.9125,
2014-12-14, 00:47:04,VALID,918.428,VALID,0,VALID,94.1339,VALID,0,VALID,19.8393,VALID,140,VALID,1.46563,
2014-12-14, 00:48:04,VALID,918.366,VALID,0,VALID,93.8061,VALID,0,VALID,19.8603,VALID,146,VALID,1.48672,
2014-12-14, 00:49:04,VALID,918.389,VALID,0,VALID,93.2572,VALID,0,VALID,19.9173,VALID,148,VALID,1.20742,
2014-12-14, 00:50:04,VALID,918.355,VALID,0,VALID,93.0895,VALID,0,VALID,19.9563,VALID,156,VALID,1.11523,
2014-12-14, 00:51:04,VALID,918.357,VALID,0,VALID,92.9218,VALID,0,VALID,19.9578,VALID,155,VALID,1.0082,
2014-12-14, 00:52:04,VALID,918.317,VALID,0,VALID,92.8761,VALID,0,VALID,19.9368,VALID,148,VALID,1.24766,
2014-12-14, 00:53:04,VALID,918.323,VALID,0,VALID,92.7693,VALID,0,VALID,19.9578,VALID,171,VALID,1.3457,
2014-12-14, 00:54:04,VALID,918.31,VALID,0,VALID,92.3043,VALID,0,VALID,19.9758,VALID,140,VALID,1.69648,
2014-12-14, 00:55:04,VALID,918.304,VALID,0,VALID,91.7859,VALID,0,VALID,20.0358,VALID,151,VALID,1.29688,
2014-12-14, 00:56:04,VALID,918.294,VALID,0,VALID,91.3895,VALID,0,VALID,20.0733,VALID,147,VALID,1.47891,
2014-12-14, 00:57:04,VALID,918.255,VALID,0,VALID,91.2218,VALID,0,VALID,20.0928,VALID,142,VALID,0.935547,
2014-12-14, 00:58:04,VALID,918.245,VALID,0,VALID,91.2066,VALID,0,VALID,20.0928,VALID,153,VALID,0.835938,
2014-12-14, 00:59:04,VALID,918.251,VALID,0,VALID,91.3209,VALID,0,VALID,20.0928,VALID,157,VALID,0.964063,
2014-12-14, 01:00:04,VALID,918.239,VALID,0,VALID,91.4505,VALID,0,VALID,20.0733,VALID,139,VALID,1.29023,
2014-12-14, 01:01:04,VALID,918.225,VALID,0,VALID,91.481,VALID,0,VALID,20.0553,VALID,143,VALID,1.6,
2014-12-14, 01:02:04,VALID,918.218,VALID,0,VALID,91.4962,VALID,0,VALID,20.0538,VALID,144,VALID,1.35469,
2014-12-14, 01:03:04,VALID,918.213,VALID,0,VALID,91.4734,VALID,0,VALID,20.0749,VALID,124,VALID,1.66484,
2014-12-14, 01:04:04,VALID,918.234,VALID,0,VALID,91.42,VALID,0,VALID,20.0733,VALID,134,VALID,1.8125,
2014-12-14, 01:05:04,VALID,918.201,VALID,0,VALID,91.481,VALID,0,VALID,20.1139,VALID,135,VALID,1.84375,
2014-12-14, 01:06:04,VALID,918.214,VALID,0,VALID,91.6182,VALID,0,VALID,20.0343,VALID,115,VALID,1.10078,
2014-12-14, 01:07:04,VALID,918.208,VALID,0,VALID,91.8088,VALID,0,VALID,20.0148,VALID,114,VALID,1.41719,
2014-12-14, 01:08:04,VALID,918.209,VALID,0,VALID,91.9994,VALID,0,VALID,19.9758,VALID,120,VALID,1.41445,
2014-12-14, 01:09:04,VALID,918.188,VALID,0,VALID,92.2281,VALID,0,VALID,19.9563,VALID,137,VALID,0.910937,
2014-12-14, 01:10:04,VALID,918.185,VALID,0,VALID,92.4339,VALID,0,VALID,19.9173,VALID,129,VALID,1.4832,
2014-12-14, 01:11:04,VALID,918.176,VALID,0,VALID,92.6626,VALID,0,VALID,19.9188,VALID,136,VALID,1.17539,
2014-12-14, 01:12:04,VALID,918.171,VALID,0,VALID,92.838,VALID,0,VALID,19.8978,VALID,99,VALID,1.13555,
2014-12-14, 01:13:04,VALID,918.151,VALID,0,VALID,92.9904,VALID,0,VALID,19.8588,VALID,92,VALID,0.628906,
2014-12-14, 01:14:04,VALID,918.116,VALID,0,VALID,93.2877,VALID,0,VALID,19.8198,VALID,141,VALID,0.631641,
2014-12-14, 01:15:04,VALID,918.122,VALID,0,VALID,93.6765,VALID,0,VALID,19.8003,VALID,128,VALID,1.08086,
2014-12-14, 01:16:04,VALID,918.117,VALID,0,VALID,94.1873,VALID,0,VALID,19.7613,VALID,135,VALID,0.84375,
2014-12-14, 01:17:04,VALID,918.102,VALID,0,VALID,94.6905,VALID,0,VALID,19.7223,VALID,127,VALID,2.10508,
2014-12-14, 01:18:04,VALID,918.08,VALID,0,VALID,94.9573,VALID,0,VALID,19.7433,VALID,108,VALID,1.13359,
2014-12-14, 01:19:04,VALID,918.067,VALID,0,VALID,95.0564,VALID,0,VALID,19.7238,VALID,131,VALID,1.55586,
2014-12-14, 01:20:04,VALID,918.061,VALID,0,VALID,95.1174,VALID,0,VALID,19.7238,VALID,123,VALID,1.45664,
2014-12-14, 01:21:04,VALID,918.068,VALID,0,VALID,95.1326,VALID,0,VALID,19.6833,VALID,132,VALID,1.35312,
2014-12-14, 01:22:04,VALID,918.053,VALID,0,VALID,95.1402,VALID,0,VALID,19.6833,VALID,130,VALID,1.44258,
2014-12-14, 01:23:04,VALID,918.046,VALID,0,VALID,95.1479,VALID,0,VALID,19.7043,VALID,123,VALID,1.7707,
2014-12-14, 01:24:04,VALID,918.034,VALID,0,VALID,95.1097,VALID,0,VALID,19.6833,VALID,129,VALID,1.28672,
2014-12-14, 01:25:04,VALID,918.031,VALID,0,VALID,95.0411,VALID,0,VALID,19.7028,VALID,129,VALID,1.1293,
2014-12-14, 01:26:04,VALID,917.99,VALID,0,VALID,94.9649,VALID,0,VALID,19.7223,VALID,138,VALID,1.65469,
2014-12-14, 01:27:04,VALID,917.993,VALID,0,VALID,94.8582,VALID,0,VALID,19.7433,VALID,150,VALID,1.32383,
2014-12-14, 01:28:04,VALID,917.966,VALID,0,VALID,94.7057,VALID,0,VALID,19.7223,VALID,124,VALID,0.930859,
2014-12-14, 01:29:04,VALID,917.93,VALID,0,VALID,94.6447,VALID,0,VALID,19.7028,VALID,150,VALID,1.59414,
2014-12-14, 01:30:04,VALID,917.921,VALID,0,VALID,94.6676,VALID,0,VALID,19.7028,VALID,163,VALID,0.501172,
2014-12-14, 01:31:04,VALID,917.902,VALID,0,VALID,94.7743,VALID,0,VALID,19.7238,VALID,148,VALID,0.866016,
2014-12-14, 01:32:04,VALID,917.903,VALID,0,VALID,94.82,VALID,0,VALID,19.7238,VALID,155,VALID,1.09063,
2014-12-14, 01:33:04,VALID,917.885,VALID,0,VALID,94.6828,VALID,0,VALID,19.7628,VALID,136,VALID,1.6125,
2014-12-14, 01:34:04,VALID,917.86,VALID,0,VALID,94.2635,VALID,0,VALID,19.7418,VALID,152,VALID,1.63984,
2014-12-14, 01:35:04,VALID,917.817,VALID,0,VALID,93.8595,VALID,0,VALID,19.7613,VALID,163,VALID,1.49297,
2014-12-14, 01:36:04,VALID,917.795,VALID,0,VALID,93.5774,VALID,0,VALID,19.7613,VALID,161,VALID,0.790234,
2014-12-14, 01:37:04,VALID,917.79,VALID,0,VALID,93.4936,VALID,0,VALID,19.7613,VALID,147,VALID,1.02773,
2014-12-14, 01:38:04,VALID,917.756,VALID,0,VALID,93.4707,VALID,0,VALID,19.7628,VALID,150,VALID,1.07461,
2014-12-14, 01:39:04,VALID,917.76,VALID,0,VALID,93.4707,VALID,0,VALID,19.7418,VALID,165,VALID,1.01211,
2014-12-14, 01:40:04,VALID,917.746,VALID,0,VALID,93.5012,VALID,0,VALID,19.7223,VALID,158,VALID,0.621094,
2014-12-14, 01:41:04,VALID,917.715,VALID,0,VALID,93.5927,VALID,0,VALID,19.7223,VALID,153,VALID,0.558594,
2014-12-14, 01:42:04,VALID,917.71,VALID,0,VALID,93.707,VALID,0,VALID,19.7043,VALID,177,VALID,1.17734,
2014-12-14, 01:43:04,VALID,917.672,VALID,0,VALID,93.8138,VALID,0,VALID,19.6833,VALID,161,VALID,0.294531,
2014-12-14, 01:44:04,VALID,917.665,VALID,0,VALID,93.8824,VALID,0,VALID,19.7043,VALID,173,VALID,1.06211,
2014-12-14, 01:45:04,VALID,917.64,VALID,0,VALID,93.9434,VALID,0,VALID,19.6848,VALID,154,VALID,0.517969,
2014-12-14, 01:46:04,VALID,917.63,VALID,0,VALID,94.0425,VALID,0,VALID,19.6848,VALID,155,VALID,0.627344,
2014-12-14, 01:47:04,VALID,917.575,VALID,0,VALID,94.0653,VALID,0,VALID,19.6458,VALID,153,VALID,0.360938,
2014-12-14, 01:48:04,VALID,917.579,VALID,0,VALID,94.1416,VALID,0,VALID,19.6248,VALID,153,VALID,0.570313,
2014-12-14, 01:49:04,VALID,917.521,VALID,0,VALID,94.1492,VALID,0,VALID,19.6053,VALID,133,VALID,0.716797,
2014-12-14, 01:50:04,VALID,917.518,VALID,0,VALID,94.1263,VALID,0,VALID,19.6053,VALID,142,VALID,0.425391,
2014-12-14, 01:51:04,VALID,917.484,VALID,0,VALID,94.012,VALID,0,VALID,19.5858,VALID,142,VALID,0.572656,
2014-12-14, 01:52:04,VALID,917.492,VALID,0,VALID,94.0577,VALID,0,VALID,19.5663,VALID,142,VALID,0.473828,
2014-12-14, 01:53:04,VALID,917.455,VALID,0,VALID,94.3093,VALID,0,VALID,19.5468,VALID,152,VALID,0.847656,
2014-12-14, 01:54:04,VALID,917.444,VALID,0,VALID,94.7514,VALID,0,VALID,19.5483,VALID,165,VALID,0.849219,
2014-12-14, 01:55:04,VALID,917.428,VALID,0,VALID,94.8734,VALID,0,VALID,19.5483,VALID,164,VALID,0.666406,
2014-12-14, 01:56:04,VALID,917.429,VALID,0,VALID,94.9115,VALID,0,VALID,19.5273,VALID,164,VALID,0.473828,
2014-12-14, 01:57:04,VALID,917.418,VALID,0,VALID,94.9573,VALID,0,VALID,19.5093,VALID,163,VALID,0.629687,
2014-12-14, 01:58:04,VALID,917.385,VALID,0,VALID,95.0411,VALID,0,VALID,19.4688,VALID,163,VALID,0.321875,
2014-12-14, 01:59:04,VALID,917.373,VALID,0,VALID,95.0792,VALID,0,VALID,19.4298,VALID,163,VALID,0.432031,
2014-12-14, 02:00:04,VALID,917.343,VALID,0,VALID,95.064,VALID,0,VALID,19.4103,VALID,163,VALID,0.898438,
2014-12-14, 02:01:04,VALID,917.331,VALID,0,VALID,95.1097,VALID,0,VALID,19.4313,VALID,159,VALID,0.491797,
2014-12-14, 02:02:04,VALID,917.32,VALID,0,VALID,95.1783,VALID,0,VALID,19.4103,VALID,159,VALID,0.536719,
2014-12-14, 02:03:04,VALID,917.301,VALID,0,VALID,95.2012,VALID,0,VALID,19.4118,VALID,159,VALID,0.565234,
2014-12-14, 02:04:04,VALID,917.283,VALID,0,VALID,95.2622,VALID,0,VALID,19.4118,VALID,159,VALID,0.31875,
2014-12-14, 02:05:04,VALID,917.274,VALID,0,VALID,95.2698,VALID,0,VALID,19.3728,VALID,159,VALID,0.664063,
2014-12-14, 02:06:04,VALID,917.249,VALID,0,VALID,95.3156,VALID,0,VALID,19.3323,VALID,159,VALID,0.539844,
2014-12-14, 02:07:04,VALID,917.281,VALID,0,VALID,95.3918,VALID,0,VALID,19.3323,VALID,159,VALID,0.453516,
2014-12-14, 02:08:04,VALID,917.247,VALID,0,VALID,95.4757,VALID,0,VALID,19.3128,VALID,160,VALID,0.920703,
2014-12-14, 02:09:04,VALID,917.264,VALID,0,VALID,95.5824,VALID,0,VALID,19.2948,VALID,160,VALID,0.394531,
2014-12-14, 02:10:04,VALID,917.253,VALID,0,VALID,95.6434,VALID,0,VALID,19.2738,VALID,160,VALID,0.621094,
2014-12-14, 02:11:04,VALID,917.249,VALID,0,VALID,95.8187,VALID,0,VALID,19.2738,VALID,177,VALID,0.647266,
2014-12-14, 02:12:04,VALID,917.235,VALID,0,VALID,95.9331,VALID,0,VALID,19.2543,VALID,172,VALID,0.714844,
2014-12-14, 02:13:04,VALID,917.23,VALID,0,VALID,96.0474,VALID,0,VALID,19.2753,VALID,168,VALID,0.451562,
2014-12-14, 02:14:04,VALID,917.251,VALID,0,VALID,96.1694,VALID,0,VALID,19.2738,VALID,176,VALID,0.348437,
2014-12-14, 02:15:04,VALID,917.223,VALID,0,VALID,96.2533,VALID,0,VALID,19.2558,VALID,163,VALID,0.489453,
2014-12-14, 02:16:04,VALID,917.208,VALID,0,VALID,96.3295,VALID,0,VALID,19.2348,VALID,165,VALID,0.792969,
2014-12-14, 02:17:04,VALID,917.207,VALID,0,VALID,96.3829,VALID,0,VALID,19.2153,VALID,164,VALID,0.989062,
2014-12-14, 02:18:04,VALID,917.17,VALID,0,VALID,96.4591,VALID,0,VALID,19.2168,VALID,173,VALID,0.96875,
2014-12-14, 02:19:04,VALID,917.178,VALID,0,VALID,96.5277,VALID,0,VALID,19.1973,VALID,164,VALID,0.501172,
2014-12-14, 02:20:04,VALID,917.172,VALID,0,VALID,96.5887,VALID,0,VALID,19.1583,VALID,155,VALID,0.835547,
2014-12-14, 02:21:04,VALID,917.171,VALID,0,VALID,96.6497,VALID,0,VALID,19.1388,VALID,155,VALID,0.551562,
2014-12-14, 02:22:04,VALID,917.185,VALID,0,VALID,96.7335,VALID,0,VALID,19.0983,VALID,176,VALID,0.541016,
2014-12-14, 02:23:04,VALID,917.202,VALID,0,VALID,96.8021,VALID,0,VALID,19.0998,VALID,156,VALID,0.795313,
2014-12-14, 02:24:04,VALID,917.212,VALID,0,VALID,96.8555,VALID,0,VALID,19.0398,VALID,152,VALID,0.766016,
2014-12-14, 02:25:04,VALID,917.204,VALID,0,VALID,96.9012,VALID,0,VALID,19.0218,VALID,154,VALID,0.776563,
2014-12-14, 02:26:04,VALID,917.192,VALID,0,VALID,96.9546,VALID,0,VALID,18.9619,VALID,154,VALID,0.621094,
2014-12-14, 02:27:04,VALID,917.201,VALID,0,VALID,97.0461,VALID,0,VALID,18.9633,VALID,154,VALID,0.525391,
2014-12-14, 02:28:04,VALID,917.25,VALID,0,VALID,97.1071,VALID,0,VALID,18.9633,VALID,154,VALID,0.474609,
2014-12-14, 02:29:04,VALID,917.255,VALID,0,VALID,97.1604,VALID,0,VALID,18.9438,VALID,145,VALID,0.917188,
2014-12-14, 02:30:04,VALID,917.241,VALID,0,VALID,97.2062,VALID,0,VALID,18.9438,VALID,147,VALID,0.80625,
2014-12-14, 02:31:05,VALID,917.269,VALID,0,VALID,97.2519,VALID,0,VALID,18.9438,VALID,158,VALID,1.09805,
2014-12-14, 02:32:05,VALID,917.251,VALID,0,VALID,97.2977,VALID,0,VALID,18.9438,VALID,158,VALID,1.27422,
2014-12-14, 02:33:05,VALID,917.274,VALID,0,VALID,97.3358,VALID,0,VALID,18.9828,VALID,161,VALID,1.64648,
2014-12-14, 02:34:05,VALID,917.278,VALID,0,VALID,97.3891,VALID,0,VALID,19.0218,VALID,163,VALID,0.833594,
2014-12-14, 02:35:05,VALID,917.289,VALID,0,VALID,97.3739,VALID,0,VALID,19.0218,VALID,162,VALID,0.535937,
2014-12-14, 02:36:05,VALID,917.298,VALID,0,VALID,97.412,VALID,0,VALID,19.0413,VALID,143,VALID,1.05313,
2014-12-14, 02:37:05,VALID,917.264,VALID,0,VALID,97.4273,VALID,0,VALID,19.0203,VALID,149,VALID,0.675,
2014-12-14, 02:38:05,VALID,917.286,VALID,0,VALID,97.4044,VALID,0,VALID,19.0608,VALID,149,VALID,0.880078,
2014-12-14, 02:39:05,VALID,917.283,VALID,0,VALID,97.4044,VALID,0,VALID,19.0413,VALID,151,VALID,0.504687,
2014-12-14, 02:40:05,VALID,917.308,VALID,0,VALID,97.3968,VALID,0,VALID,19.0608,VALID,141,VALID,0.783984,
2014-12-14, 02:41:05,VALID,917.295,VALID,0,VALID,97.3663,VALID,0,VALID,19.0803,VALID,153,VALID,0.714063,
2014-12-14, 02:42:05,VALID,917.285,VALID,0,VALID,97.3586,VALID,0,VALID,19.0803,VALID,120,VALID,0.900781,
2014-12-14, 02:43:05,VALID,917.326,VALID,0,VALID,97.3281,VALID,0,VALID,19.0998,VALID,128,VALID,0.670313,
2014-12-14, 02:44:05,VALID,917.319,VALID,0,VALID,97.3053,VALID,0,VALID,19.0788,VALID,130,VALID,0.576953,
2014-12-14, 02:45:05,VALID,917.289,VALID,0,VALID,97.2519,VALID,0,VALID,19.0803,VALID,128,VALID,0.324609,
2014-12-14, 02:46:05,VALID,917.287,VALID,0,VALID,97.229,VALID,0,VALID,19.0998,VALID,128,VALID,0.146094,
2014-12-14, 02:47:05,VALID,917.292,VALID,0,VALID,97.1909,VALID,0,VALID,19.0593,VALID,128,VALID,0.000390625,
2014-12-14, 02:48:05,VALID,917.338,VALID,0,VALID,97.1604,VALID,0,VALID,19.0803,VALID,128,VALID,0,
2014-12-14, 02:49:05,VALID,917.309,VALID,0,VALID,97.1223,VALID,0,VALID,19.0803,VALID,128,VALID,0,
2014-12-14, 02:50:05,VALID,917.316,VALID,0,VALID,97.0842,VALID,0,VALID,19.0218,VALID,128,VALID,0,
2014-12-14, 02:51:05,VALID,917.267,VALID,0,VALID,97.0156,VALID,0,VALID,18.9814,VALID,128,VALID,0.164453,
2014-12-14, 02:52:05,VALID,917.297,VALID,0,VALID,97.0003,VALID,0,VALID,18.9633,VALID,128,VALID,0.276172,
2014-12-14, 02:53:05,VALID,917.265,VALID,0,VALID,97.008,VALID,0,VALID,18.9438,VALID,128,VALID,0.0808594,
2014-12-14, 02:54:05,VALID,917.275,VALID,0,VALID,96.9927,VALID,0,VALID,18.9647,VALID,128,VALID,0,
2014-12-14, 02:55:05,VALID,917.26,VALID,0,VALID,96.9851,VALID,0,VALID,18.8644,VALID,128,VALID,0.377344,
2014-12-14, 02:56:05,VALID,917.246,VALID,0,VALID,97.008,VALID,0,VALID,18.8853,VALID,128,VALID,0.732031,
2014-12-14, 02:57:05,VALID,917.282,VALID,0,VALID,97.0537,VALID,0,VALID,18.8658,VALID,128,VALID,0.725781,
2014-12-14, 02:58:05,VALID,917.265,VALID,0,VALID,97.0994,VALID,0,VALID,18.8658,VALID,128,VALID,0.719531,
2014-12-14, 07:02:04,VALID,918.061,VALID,0,VALID,98.1286,VALID,97.4491,VALID,18.4369,VALID,138,VALID,0,
2014-12-14, 07:03:04,VALID,918.066,VALID,0,VALID,98.1286,VALID,100.028,VALID,18.572,VALID,138,VALID,0,
2014-12-14, 07:04:04,VALID,918.089,VALID,0,VALID,98.0981,VALID,110.02,VALID,18.7878,VALID,138,VALID,0,
2014-12-14, 07:05:04,VALID,918.126,VALID,0,VALID,98.0448,VALID,119.367,VALID,19.0023,VALID,138,VALID,0,
2014-12-14, 07:06:04,VALID,918.136,VALID,0,VALID,98.0295,VALID,129.037,VALID,19.1193,VALID,138,VALID,0,
2014-12-14, 07:07:04,VALID,918.173,VALID,0,VALID,98.0143,VALID,132.045,VALID,19.2948,VALID,138,VALID,0,
2014-12-14, 07:08:04,VALID,918.173,VALID,0,VALID,98.0143,VALID,130.219,VALID,19.4103,VALID,138,VALID,0,
2014-12-14, 07:09:04,VALID,918.186,VALID,0,VALID,98.0143,VALID,125.814,VALID,19.4508,VALID,137,VALID,0,
2014-12-14, 07:10:04,VALID,918.225,VALID,0,VALID,97.9761,VALID,134.087,VALID,19.4508,VALID,138,VALID,0,
2014-12-14, 07:11:04,VALID,918.235,VALID,0,VALID,97.938,VALID,136.773,VALID,19.4508,VALID,138,VALID,0,
2014-12-14, 07:12:04,VALID,918.233,VALID,0,VALID,97.8542,VALID,137.095,VALID,19.4703,VALID,138,VALID,0,
2014-12-14, 07:13:04,VALID,918.237,VALID,0,VALID,97.7474,VALID,141.07,VALID,19.5288,VALID,138,VALID,0,
2014-12-14, 07:14:04,VALID,918.25,VALID,0,VALID,97.656,VALID,92.5068,VALID,19.5483,VALID,117,VALID,0,
2014-12-14, 07:15:04,VALID,918.234,VALID,0,VALID,97.5187,VALID,108.301,VALID,19.5858,VALID,113,VALID,0,
2014-12-14, 07:16:04,VALID,918.23,VALID,0,VALID,97.3663,VALID,148.269,VALID,19.6638,VALID,113,VALID,0,
2014-12-14, 07:17:04,VALID,918.25,VALID,0,VALID,97.1757,VALID,153.211,VALID,19.7613,VALID,113,VALID,0,
2014-12-14, 07:18:04,VALID,918.237,VALID,0,VALID,96.9165,VALID,157.938,VALID,19.9368,VALID,113,VALID,0,
2014-12-14, 07:19:04,VALID,918.27,VALID,0,VALID,96.4896,VALID,159.228,VALID,20.0733,VALID,113,VALID,0,
2014-12-14, 07:20:04,VALID,918.305,VALID,0,VALID,95.529,VALID,159.335,VALID,20.1318,VALID,113,VALID,0,
2014-12-14, 07:21:04,VALID,918.314,VALID,0,VALID,94.416,VALID,161.591,VALID,20.2293,VALID,113,VALID,0,
2014-12-14, 07:22:04,VALID,918.332,VALID,0,VALID,92.5788,VALID,161.054,VALID,20.2684,VALID,110,VALID,0,
2014-12-14, 07:23:04,VALID,918.333,VALID,0,VALID,92.3806,VALID,165.137,VALID,20.3659,VALID,39,VALID,0,
2014-12-14, 07:24:04,VALID,918.332,VALID,0,VALID,90.9931,VALID,170.294,VALID,20.3659,VALID,40,VALID,0,
2014-12-14, 07:25:04,VALID,918.34,VALID,0,VALID,90.0707,VALID,174.592,VALID,20.3269,VALID,38,VALID,0,
2014-12-14, 07:26:04,VALID,918.327,VALID,0,VALID,90.3451,VALID,177.063,VALID,20.3269,VALID,38,VALID,0,
2014-12-14, 07:27:04,VALID,918.333,VALID,0,VALID,90.7491,VALID,176.633,VALID,20.3659,VALID,45,VALID,0,
2014-12-14, 07:28:04,VALID,918.327,VALID,0,VALID,90.4976,VALID,177.278,VALID,20.3854,VALID,44,VALID,0,
2014-12-14, 07:29:04,VALID,918.308,VALID,0,VALID,90.5586,VALID,119.367,VALID,20.4049,VALID,33,VALID,0,
2014-12-14, 07:30:04,VALID,918.324,VALID,0,VALID,90.772,VALID,186.948,VALID,20.4439,VALID,35,VALID,0,
2014-12-14, 07:31:04,VALID,918.338,VALID,0,VALID,90.5357,VALID,191.138,VALID,20.4423,VALID,33,VALID,0,
2014-12-14, 07:32:04,VALID,918.318,VALID,0,VALID,90.2917,VALID,195.113,VALID,20.4618,VALID,42,VALID,0,
2014-12-14, 07:33:04,VALID,918.325,VALID,0,VALID,89.9563,VALID,201.13,VALID,20.5204,VALID,56,VALID,0,
2014-12-14, 07:34:04,VALID,918.328,VALID,0,VALID,89.6819,VALID,204.675,VALID,20.5609,VALID,60,VALID,0,
2014-12-14, 07:35:04,VALID,918.325,VALID,0,VALID,88.8052,VALID,211.874,VALID,20.5414,VALID,50,VALID,0,
2014-12-14, 07:36:04,VALID,918.342,VALID,0,VALID,88.424,VALID,213.056,VALID,20.5399,VALID,60,VALID,0.163281,
2014-12-14, 07:37:04,VALID,918.356,VALID,0,VALID,87.6083,VALID,214.345,VALID,20.5204,VALID,49,VALID,0.714453,
2014-12-14, 07:38:04,VALID,918.385,VALID,0,VALID,88.1572,VALID,210.37,VALID,20.5594,VALID,36,VALID,0.727734,
2014-12-14, 07:39:04,VALID,918.339,VALID,0,VALID,88.5079,VALID,215.42,VALID,20.5984,VALID,52,VALID,1.24727,
2014-12-14, 07:40:04,VALID,918.328,VALID,0,VALID,87.1814,VALID,217.676,VALID,20.6764,VALID,12,VALID,1.59883,
2014-12-14, 07:41:04,VALID,918.323,VALID,0,VALID,87.5702,VALID,217.998,VALID,20.7154,VALID,3,VALID,1.13047,
2014-12-14, 07:42:04,VALID,918.357,VALID,0,VALID,87.6617,VALID,221.973,VALID,20.7755,VALID,12,VALID,1.16641,
2014-12-14, 07:43:04,VALID,918.342,VALID,0,VALID,87.5092,VALID,226.056,VALID,20.8535,VALID,357,VALID,1.06562,
2014-12-14, 07:44:04,VALID,918.36,VALID,0,VALID,86.9756,VALID,228.098,VALID,20.912,VALID,356,VALID,1.01484,
2014-12-14, 07:45:04,VALID,918.358,VALID,0,VALID,87.715,VALID,230.998,VALID,21.0291,VALID,350,VALID,0.000390625,
2014-12-14, 07:46:04,VALID,918.358,VALID,0,VALID,86.846,VALID,233.362,VALID,21.1266,VALID,22,VALID,1.0043,
2014-12-14, 07:47:04,VALID,918.354,VALID,0,VALID,85.8092,VALID,235.511,VALID,21.2047,VALID,341,VALID,1.1332,
2014-12-14, 07:48:04,VALID,918.382,VALID,0,VALID,86.4877,VALID,239.594,VALID,21.3022,VALID,359,VALID,1.19844,